TimeCDT,TemperatureF,Dew PointF,Humidity,Sea Level PressureIn,VisibilityMPH,Wind Direction,Wind SpeedMPH,Gust SpeedMPH,PrecipitationIn,Events,Conditions,WindDirDegrees,DateUTC
12:53 AM,63.0,55.0,75,30.01,-9999.0,ESE,6.9,-,N/A,,Clear,110,2013-06-19 05:53:00
1:53 AM,64.9,57.0,75,30.01,-9999.0,SE,9.2,-,N/A,,Clear,130,2013-06-19 06:53:00
2:53 AM,64.0,55.9,75,29.99,-9999.0,ESE,8.1,-,N/A,,Clear,120,2013-06-19 07:53:00
3:53 AM,64.0,55.9,75,29.99,-9999.0,SE,8.1,-,N/A,,Clear,130,2013-06-19 08:53:00
4:53 AM,63.0,55.9,78,29.99,-9999.0,SE,6.9,-,N/A,,Clear,130,2013-06-19 09:53:00
5:53 AM,62.1,55.9,80,30.01,-9999.0,ESE,3.5,-,N/A,,Clear,110,2013-06-19 10:53:00
6:53 AM,63.0,57.9,84,30.02,10.0,SE,5.8,-,N/A,,Clear,130,2013-06-19 11:53:00
7:53 AM,66.9,60.1,79,30.03,10.0,SSE,9.2,-,N/A,,Clear,160,2013-06-19 12:53:00
8:53 AM,71.1,62.1,73,30.03,10.0,SSE,9.2,-,N/A,,Scattered Clouds,150,2013-06-19 13:53:00
9:53 AM,75.0,62.1,64,30.01,10.0,SSE,8.1,-,N/A,,Clear,150,2013-06-19 14:53:00
10:53 AM,80.1,60.1,50,29.99,-9999.0,South,9.2,-,N/A,,Clear,170,2013-06-19 15:53:00
11:53 AM,81.0,55.0,41,29.99,10.0,South,10.4,-,N/A,,Partly Cloudy,170,2013-06-19 16:53:00
12:53 PM,82.0,55.9,41,29.98,10.0,South,16.1,-,N/A,,Scattered Clouds,170,2013-06-19 17:53:00
1:53 PM,84.0,57.9,41,29.96,10.0,South,15.0,24.2,N/A,,Scattered Clouds,170,2013-06-19 18:53:00
2:53 PM,84.0,55.9,38,29.95,10.0,South,16.1,23.0,N/A,,Scattered Clouds,170,2013-06-19 19:53:00
3:53 PM,84.9,59.0,41,29.93,10.0,South,19.6,25.3,N/A,,Partly Cloudy,170,2013-06-19 20:53:00
4:53 PM,82.0,60.1,47,29.92,10.0,SSE,17.3,26.5,N/A,,Scattered Clouds,160,2013-06-19 21:53:00
5:53 PM,84.9,61.0,44,29.91,10.0,South,18.4,26.5,N/A,,Scattered Clouds,170,2013-06-19 22:53:00
6:53 PM,82.0,61.0,49,29.91,10.0,SSE,19.6,26.5,N/A,,Scattered Clouds,150,2013-06-19 23:53:00
7:53 PM,82.0,59.0,45,29.91,9.0,South,19.6,-,N/A,,Clear,180,2013-06-20 00:53:00
8:53 PM,78.1,60.1,54,29.91,10.0,SSE,13.8,-,N/A,,Clear,160,2013-06-20 01:53:00
9:53 PM,75.0,62.1,64,29.94,10.0,SSE,8.1,-,N/A,,Clear,150,2013-06-20 02:53:00
10:53 PM,73.0,62.1,68,29.95,10.0,SSE,8.1,-,N/A,,Clear,150,2013-06-20 03:53:00
11:53 PM,73.0,63.0,71,29.95,10.0,SSE,11.5,-,N/A,,Clear,150,2013-06-20 04:53:00